GW3546 Weather Reports


Display with metric or nautical units.
time (UTC)temp
F
wind
direction
speed
MPH
gust
MPH
rain 1hr
in
rain 24hr
in
rain mn
in
humidity
%
barometer
mb
20260906224539 57 19 9.0 13.0 0.00 0.88 0.57 87 1007.9
20260906223039 57 360 7.0 13.0 0.00 0.88 0.57 87 1008.0
20260906221539 56 327 9.0 12.0 0.00 0.88 0.57 87 1008.1
20260906220041 56 349 7.0 13.0 0.00 0.88 0.57 87 1008.2
20260906214543 56 360 9.0 13.0 0.00 0.88 0.57 86 1008.1
20260906213037 56 5 9.0 13.0 0.00 0.88 0.57 85 1008.0
20260906211537 56 346 9.0 13.0 0.00 0.88 0.57 85 1007.9
20260906210043 56 335 8.0 14.0 0.00 0.88 0.57 86 1008.0
20260906204536 56 11 11.0 15.0 0.00 0.88 0.57 86 1008.0
20260906203037 55 360 10.0 17.0 0.00 0.88 0.57 88 1008.0
20260906201543 55 355 10.0 17.0 0.00 0.88 0.57 86 1008.0
20260906200034 56 346 12.0 17.0 0.00 0.88 0.57 85 1008.1
20260906194534 56 355 11.0 19.0 0.00 0.88 0.57 83 1008.0
20260906193033 57 320 13.0 20.0 0.00 0.88 0.57 82 1008.1
20260906191534 57 9 14.0 18.0 0.00 0.88 0.57 81 1008.1
20260906190032 57 341 14.0 22.0 0.00 0.88 0.57 79 1008.1
20260906184531 56 19 16.0 25.0 0.00 0.88 0.57 79 1007.9
20260906183039 56 25 17.0 25.0 0.00 0.88 0.57 79 1007.8
20260906181538 55 13 17.0 23.0 0.00 0.88 0.57 80 1008.1
20260906180029 54 45 15.0 22.0 0.02 0.88 0.57 85 1008.7
20260906174525 53 34 18.0 23.0 0.02 0.88 0.57 89 1008.8
20260906173025 53 26 18.0 24.0 0.02 0.88 0.57 92 1009.1
20260906171523 52 43 18.0 23.0 0.02 0.88 0.57 93 1008.6
20260906170022 52 321 13.0 17.0 0.00 0.86 0.56 92 1010.4
20260906164521 52 17 11.0 17.0 0.00 0.86 0.56 91 1009.8
20260906163020 52 19 11.0 20.0 0.00 0.86 0.56 91 1009.9
20260906161535 52 33 16.0 23.0 0.00 0.86 0.56 93 1009.4
20260906160019 51 17 15.0 20.0 0.01 0.87 0.56 94 1009.6
20260906154519 51 15 14.0 22.0 0.04 0.87 0.56 93 1010.0
20260906153018 51 30 13.0 22.0 0.15 0.87 0.56 93 1010.1
20260906151520 51 12 13.0 19.0 0.26 0.87 0.56 93 1010.2
20260906150017 51 23 7.0 10.0 0.25 0.86 0.55 92 1010.8
20260906144522 51 323 10.0 18.0 0.22 0.83 0.52 92 1010.4
20260906143015 52 287 5.0 15.0 0.11 0.72 0.41 94 1011.0
20260906141517 52 257 11.0 23.0 0.00 0.61 0.30 93 1010.5
20260906140014 53 263 14.0 21.0 0.00 0.67 0.30 94 1010.1
20260906134515 52 355 8.0 13.0 0.00 0.67 0.30 94 1009.6
20260906133012 52 42 1.0 18.0 0.00 0.67 0.30 95 1009.8
20260906131512 52 36 15.0 21.0 0.00 0.67 0.30 94 1009.3
20260906130016 52 360 12.0 24.0 0.00 0.67 0.30 92 1009.8
20260906124511 54 351 15.0 28.0 0.00 0.67 0.30 90 1009.8
20260906123016 55 21 18.0 26.0 0.00 0.67 0.30 88 1009.8
20260906121521 55 333 18.0 26.0 0.00 0.67 0.30 86 1010.2
20260906120005 57 30 9.0 18.0 0.00 0.67 0.30 71 1010.1
20260906114507 55 15 4.0 15.0 0.00 0.67 0.30 86 1010.3
20260906113100 55 5 9.0 21.0 0.00 0.67 0.30 87 1010.5
20260906111557 54 10 15.0 20.0 0.00 0.67 0.30 88 1009.9
20260906110054 53 31 12.0 22.0 0.00 0.67 0.30 90 1009.8
20260906104554 53 13 19.0 26.0 0.00 0.67 0.30 91 1010.2
20260906103051 52 13 16.0 24.0 0.00 0.67 0.30 91 1010.4
20260906101550 52 38 23.0 28.0 0.01 0.67 0.30 92 1010.1
20260906100046 52 15 18.0 23.0 0.12 0.67 0.30 95 1010.5
20260906094557 52 355 13.0 20.0 0.13 0.67 0.30 96 1010.7
20260906093049 51 20 15.0 26.0 0.15 0.67 0.30 96 1010.7
20260906091544 51 27 19.0 26.0 0.14 0.66 0.28 96 1010.7
20260906090050 51 16 13.0 18.0 0.03 0.55 0.18 96 1011.8
20260906084542 50 321 13.0 19.0 0.02 0.54 0.17 96 1012.3
20260906083045 50 360 11.0 19.0 0.00 0.52 0.15 95 1011.7
20260906081537 50 12 15.0 21.0 0.00 0.52 0.15 95 1010.8
20260906080039 50 327 12.0 18.0 0.01 0.52 0.15 95 1011.9
20260906074534 51 342 8.0 16.0 0.01 0.52 0.15 95 1012.1
20260906073031 51 53 17.0 23.0 0.03 0.52 0.15 95 1011.4
20260906071529 51 5 14.0 19.0 0.11 0.52 0.15 94 1012.0
20260906070028 52 22 10.0 20.0 0.14 0.51 0.14 94 1012.4
20260906064529 52 15 16.0 21.0 0.14 0.51 0.14 94 1012.1
20260906063123 52 317 14.0 18.0 0.12 0.49 0.12 94 1012.8
20260906061519 51 325 9.0 15.0 0.04 0.41 0.04 94 1013.1
20260906060021 51 9 11.0 18.0 0.08 0.37 0.37 93 1012.8
20260906054515 51 350 12.0 20.0 0.13 0.37 0.37 93 1012.7
20260906053014 51 22 15.0 19.0 0.13 0.37 0.37 92 1012.3
20260906051516 51 360 14.0 20.0 0.13 0.37 0.37 91 1012.2
20260906050011 52 325 12.0 14.0 0.06 0.28 0.28 89 1013.9
20260906044509 53 360 13.0 19.0 0.10 0.24 0.24 87 1012.4
20260906043021 53 9 14.0 21.0 0.16 0.24 0.24 88 1011.6
20260906041508 52 36 16.0 21.0 0.17 0.24 0.24 88 1011.8
20260906040007 52 340 18.0 27.0 0.16 0.23 0.23 85 1010.9
20260906034504 53 360 4.0 8.0 0.07 0.14 0.14 84 1013.5
20260906033100 54 15 11.0 22.0 0.01 0.08 0.08 81 1012.7
20260906031558 55 5 16.0 23.0 0.00 0.07 0.07 78 1011.9
20260906030055 55 23 17.0 25.0 0.00 0.07 0.07 78 1011.2
20260906024556 55 11 13.0 18.0 0.00 0.07 0.07 77 1010.8
20260906023054 55 30 14.0 20.0 0.00 0.07 0.07 77 1010.6
20260906021559 56 15 14.0 20.0 0.00 0.07 0.07 76 1010.8
20260906020051 56 360 16.0 21.0 0.00 0.07 0.07 75 1010.7
20260906014552 57 342 13.0 21.0 0.00 0.07 0.07 73 1010.7
20260906013051 58 17 17.0 21.0 0.00 0.07 0.07 72 1010.4
20260906011550 58 11 15.0 21.0 0.00 0.07 0.07 71 1010.5
20260906010118 59 13 17.0 22.0 0.00 0.07 0.07 70 1010.2
20260906004605 59 15 14.0 21.0 0.00 0.07 0.07 70 1010.3
20260906003048 60 30 14.0 20.0 0.00 0.07 0.07 69 1010.5
20260906001600 60 333 13.0 21.0 0.00 0.07 0.07 69 1010.5
20260906000047 60 12 15.0 20.0 0.00 0.07 0.07 69 1010.6
20260905234545 60 5 13.0 21.0 0.00 0.07 0.07 69 1010.7
20260905233046 61 5 14.0 21.0 0.00 0.07 0.07 68 1010.6
20260905231545 62 350 9.0 18.0 0.00 0.07 0.07 64 1010.5
20260905230044 62 19 13.0 18.0 0.00 0.07 0.07 64 1010.5